DW8463 Weather Reports


time (UTC)temp
C
wind
direction
speed
KPH
gust
KPH
rain 1hr
cm
rain 24hr
cm
rain mn
cm
humidity
%
barometer
mb
20260504050303 6 0 0.0 0.0 0.00 0.00 0.00 53 1001.8
20260504045803 6 0 0.0 0.0 0.00 0.00 0.00 47 1001.9
20260504044803 6 0 0.0 0.0 0.00 0.00 0.00 47 1002.0
20260504044303 7 0 0.0 0.0 0.00 0.00 0.00 47 1002.1
20260504043803 7 0 0.0 0.0 0.00 0.00 0.00 47 1002.1
20260504042803 7 0 0.0 0.0 0.00 0.00 0.00 47 1002.3
20260504042304 7 0 0.0 0.0 0.00 0.00 0.00 47 1002.3
20260504041803 7 0 0.0 0.0 0.00 0.00 0.00 47 1002.3
20260504041303 7 0 0.0 0.0 0.00 0.00 0.00 47 1002.4
20260504040803 7 0 0.0 0.0 0.00 0.00 0.00 47 1002.5
20260504035803 7 0 0.0 0.0 0.00 0.00 0.00 41 1002.6
20260504035304 7 0 0.0 0.0 0.00 0.00 0.00 41 1002.7
20260504034803 8 0 0.0 0.0 0.00 0.00 0.00 41 1002.8
20260504034303 8 0 0.0 0.0 0.00 0.00 0.00 41 1002.8
20260504033803 8 0 0.0 0.0 0.00 0.00 0.00 41 1002.9
20260504033302 8 0 0.0 0.0 0.00 0.00 0.00 41 1002.9
20260504032803 8 0 0.0 0.0 0.00 0.00 0.00 41 1003.0
20260504032304 8 0 0.0 0.0 0.00 0.00 0.00 41 1003.1
20260504031802 8 0 0.0 0.0 0.00 0.00 0.00 41 1003.2
20260504031303 9 0 0.0 0.0 0.00 0.00 0.00 41 1003.3
20260504030803 9 0 0.0 0.0 0.00 0.00 0.00 41 1003.3
20260504030303 9 0 0.0 0.0 0.00 0.00 0.00 41 1003.4
20260504025803 9 0 0.0 0.0 0.00 0.00 0.00 40 1003.4
20260504025304 10 0 0.0 0.0 0.00 0.00 0.00 40 1003.4
20260504024803 10 0 0.0 0.0 0.00 0.00 0.00 40 1003.3
20260504024303 10 0 0.0 0.0 0.00 0.00 0.00 40 1003.3
20260504023802 10 0 0.0 0.0 0.00 0.00 0.00 40 1003.3
20260504023303 11 0 0.0 0.0 0.00 0.00 0.00 40 1003.3
20260504022803 11 0 0.0 0.0 0.00 0.00 0.00 40 1003.3
20260504022304 11 0 0.0 0.0 0.00 0.00 0.00 40 1003.4
20260504021803 11 0 0.0 0.0 0.00 0.00 0.00 40 1003.3
20260504020803 12 0 0.0 0.0 0.00 0.00 0.00 40 1003.3
20260504020303 12 0 0.0 0.0 0.00 0.00 0.00 38 1003.3
20260504015803 12 0 0.0 0.0 0.00 0.00 0.00 30 1003.3
20260504015304 13 0 0.0 0.0 0.00 0.00 0.00 30 1003.3
20260504014803 13 0 0.0 0.0 0.00 0.00 0.00 30 1003.3
20260504014302 13 0 0.0 0.0 0.00 0.00 0.00 30 1003.3
20260504013802 14 0 0.0 0.0 0.00 0.00 0.00 30 1003.2
20260504012803 15 0 0.0 1.6 0.00 0.00 0.00 30 1003.2
20260504012304 15 0 0.0 0.0 0.00 0.00 0.00 30 1003.2
20260504011803 16 0 0.0 0.0 0.00 0.00 0.00 30 1003.2
20260504011302 16 0 0.0 3.2 0.00 0.00 0.00 30 1003.2
20260504010803 16 0 1.6 3.2 0.00 0.00 0.00 30 1003.2
20260504005803 17 0 1.6 4.8 0.00 0.00 0.00 26 1003.3
20260504005304 17 286 4.8 8.0 0.00 0.00 0.00 26 1003.3
20260504004803 18 295 3.2 12.9 0.00 0.00 0.00 26 1003.2
20260504004303 18 288 3.2 11.3 0.00 0.00 0.00 26 1003.2
20260504003803 18 298 4.8 9.7 0.00 0.00 0.00 26 1003.3
20260504003303 18 280 3.2 14.5 0.00 0.00 0.00 26 1003.3
20260504002802 18 298 8.0 16.1 0.00 0.00 0.00 26 1003.2
20260504001803 19 302 6.4 19.3 0.00 0.00 0.00 26 1003.3
20260504001303 19 315 6.4 16.1 0.00 0.00 0.00 26 1003.4
20260503235803 20 274 6.4 19.3 0.00 0.00 0.00 26 1003.4
20260503235304 20 265 4.8 20.9 0.00 0.00 0.00 26 1003.4
20260503234803 20 330 8.0 19.3 0.00 0.00 0.00 26 1003.4
20260503234303 20 289 6.4 19.3 0.00 0.00 0.00 26 1003.4
20260503233803 20 281 8.0 22.5 0.00 0.00 0.00 26 1003.5
20260503233303 20 282 12.9 24.1 0.00 0.00 0.00 26 1003.4
20260503232803 20 290 8.0 14.5 0.00 0.00 0.00 26 1003.4
20260503232305 20 318 9.7 22.5 0.00 0.00 0.00 26 1003.5
20260503231803 20 323 9.7 22.5 0.00 0.00 0.00 26 1003.5
20260503231303 20 323 14.5 24.1 0.00 0.00 0.00 26 1003.5
20260503230803 20 307 9.7 20.9 0.00 0.00 0.00 26 1003.6
20260503230303 20 270 3.2 14.5 0.00 0.00 0.00 26 1003.6
20260503225803 20 326 8.0 12.9 0.00 0.00 0.00 28 1003.6
20260503225304 21 308 8.0 12.9 0.00 0.00 0.00 28 1003.7
20260503224803 21 330 11.3 19.3 0.00 0.00 0.00 28 1003.7
20260503224303 21 262 9.7 20.9 0.00 0.00 0.00 28 1003.6
20260503223803 21 299 8.0 19.3 0.00 0.00 0.00 28 1003.7
20260503223303 21 285 16.1 24.1 0.00 0.00 0.00 28 1003.7
20260503222803 21 316 8.0 19.3 0.00 0.00 0.00 28 1003.6
20260503222304 21 308 12.9 22.5 0.00 0.00 0.00 28 1003.6
20260503221803 21 307 8.0 25.7 0.00 0.00 0.00 28 1003.6
20260503221303 21 288 9.7 19.3 0.00 0.00 0.00 28 1003.5
20260503220803 21 271 9.7 24.1 0.00 0.00 0.00 28 1003.6
20260503220303 21 288 8.0 19.3 0.00 0.00 0.00 28 1003.6
20260503215803 21 287 11.3 22.5 0.00 0.00 0.00 29 1003.6
20260503215304 21 293 9.7 20.9 0.00 0.00 0.00 29 1003.5
20260503214802 21 317 14.5 22.5 0.00 0.00 0.00 29 1003.5
20260503214302 21 314 11.3 22.5 0.00 0.00 0.00 29 1003.5
20260503213802 21 317 9.7 16.1 0.00 0.00 0.00 29 1003.5
20260503213303 21 279 8.0 19.3 0.00 0.00 0.00 29 1003.5
20260503212803 21 330 9.7 22.5 0.00 0.00 0.00 29 1003.6
20260503212304 21 326 16.1 27.4 0.00 0.00 0.00 29 1003.6
20260503211803 21 341 12.9 24.1 0.00 0.00 0.00 29 1003.6
20260503211303 21 321 12.9 29.0 0.00 0.00 0.00 29 1003.7
20260503210303 21 318 9.7 27.4 0.00 0.00 0.00 29 1003.8
20260503205803 21 262 8.0 22.5 0.00 0.00 0.00 33 1003.8
20260503205304 21 342 14.5 22.5 0.00 0.00 0.00 33 1003.9
20260503204803 21 306 11.3 19.3 0.00 0.00 0.00 33 1003.9
20260503204303 21 307 9.7 22.5 0.00 0.00 0.00 33 1004.0
20260503203803 21 268 9.7 29.0 0.00 0.00 0.00 33 1004.1
20260503203303 21 335 14.5 24.1 0.00 0.00 0.00 33 1004.1
20260503202803 21 293 16.1 24.1 0.00 0.00 0.00 33 1004.2
20260503202304 21 341 14.5 25.7 0.00 0.00 0.00 33 1004.3
20260503200803 21 341 11.3 32.2 0.00 0.00 0.00 33 1004.3
20260503200303 21 315 8.0 19.3 0.00 0.00 0.00 33 1004.2
20260503195802 21 335 16.1 24.1 0.00 0.00 0.00 31 1004.3
20260503195304 21 310 16.1 27.4 0.00 0.00 0.00 31 1004.2
20260503194803 21 302 9.7 27.4 0.00 0.00 0.00 31 1004.2
20260503194303 21 346 14.5 25.7 0.00 0.00 0.00 31 1004.2
20260503193803 21 333 11.3 22.5 0.00 0.00 0.00 31 1004.3
20260503193303 21 257 9.7 19.3 0.00 0.00 0.00 31 1004.3
20260503192803 21 310 12.9 25.7 0.00 0.00 0.00 31 1004.5
20260503192305 21 310 11.3 27.4 0.00 0.00 0.00 31 1004.4
20260503191303 21 308 17.7 29.0 0.00 0.00 0.00 31 1004.5
20260503190803 21 341 19.3 29.0 0.00 0.00 0.00 31 1004.4
20260503190303 21 328 19.3 33.8 0.00 0.00 0.00 31 1004.5
20260503185305 21 318 11.3 29.0 0.00 0.00 0.00 36 1004.6
20260503184803 20 322 14.5 32.2 0.00 0.00 0.00 36 1004.6
20260503184302 21 328 16.1 32.2 0.00 0.00 0.00 36 1004.6
20260503183803 20 292 6.4 22.5 0.00 0.00 0.00 36 1004.5
20260503183303 20 299 12.9 22.5 0.00 0.00 0.00 36 1004.6
20260503182803 20 334 6.4 25.7 0.00 0.00 0.00 36 1004.6
20260503180803 20 332 12.9 25.7 0.00 0.00 0.00 36 1004.9
20260503180303 20 355 12.9 25.7 0.00 0.00 0.00 36 1004.8
20260503175803 20 324 9.7 19.3 0.00 0.00 0.00 40 1004.9
20260503175304 20 324 8.0 29.0 0.00 0.00 0.00 40 1004.9
20260503174803 20 279 19.3 29.0 0.00 0.00 0.00 40 1004.9
20260503174303 20 338 12.9 20.9 0.00 0.00 0.00 40 1004.8
20260503173303 20 314 14.5 29.0 0.00 0.00 0.00 40 1004.9
20260503172803 20 321 11.3 24.1 0.00 0.00 0.00 40 1005.0
20260503171803 19 327 14.5 29.0 0.00 0.00 0.00 40 1005.0
20260503171303 19 277 9.7 25.7 0.00 0.00 0.00 40 1005.0
20260503170803 19 310 17.7 32.2 0.00 0.00 0.00 40 1005.1
20260503170303 19 317 14.5 24.1 0.00 0.00 0.00 40 1005.1
20260503150803 16 0 9.7 16.1 0.00 0.00 0.00 46 1004.7
20260503150303 16 302 11.3 16.1 0.00 0.00 0.00 46 1004.7
20260503140303 15 236 8.0 20.9 0.00 0.00 0.00 46 1004.7
20260503131303 13 0 4.8 19.3 0.00 0.00 0.00 49 1004.7
20260503130803 13 340 1.6 12.9 0.00 0.00 0.00 49 1004.8
20260503130303 12 291 8.0 14.5 0.00 0.00 0.00 49 1004.8
20260503110803 11 0 3.2 9.7 0.00 0.00 0.00 49 1004.4
20260503110303 11 0 4.8 16.1 0.00 0.00 0.00 49 1004.5
20260503090303 12 0 3.2 19.3 0.00 0.00 0.00 46 1005.7
20260503081303 13 0 8.0 19.3 0.00 0.00 0.00 42 1006.4
20260503080803 13 0 9.7 24.1 0.00 0.00 0.00 42 1006.6
20260503080303 13 0 8.0 24.1 0.00 0.00 0.00 42 1006.7
20260503072803 13 0 14.5 32.2 0.00 0.00 0.00 44 1006.7
20260503072305 12 0 9.7 24.1 0.00 0.00 0.00 44 1007.2
20260503071803 12 0 6.4 16.1 0.00 0.00 0.00 44 1007.4
20260503070803 12 0 4.8 14.5 0.00 0.00 0.00 44 1007.7
20260503070303 12 0 4.8 16.1 0.00 0.00 0.00 44 1007.6